Location: Mexico
(19.4000°N, 99.1500°W)
Time: 16:25:28
(UTC-06:00)

ISS - Pass Details

Date: 07 August 2020
Orbit: 418 x 420 km, 51.6° (Epoch: 08 August)

Event Time Altitude Azimuth Distance (km) Brightness Sun altitude
Rises 20:16:48 0° 324° (NW) 2,355 1.1 -15.8°
Reaches altitude 10° 20:18:54 10° 327° (NNW) 1,491 -0.1 -16.2°
Maximum altitude 20:22:14 68° 51° (NE) 450 -3.8 -16.9°
Enters shadow 20:22:58 48° 114° (ESE) 548 -3.7 -17.1°
